User: anonymous   Login
Location: Lower Kingswood
(51.2667°N, 0.2167°W)
Time: 03:54:48
(UTC+00:00)
Language:

Cosmos 990 Rocket - Orbit

View from above orbital plane
View from above orbital plane
View from above satellite
View from above satellite

Ground track
Ground track

The orbit data is extracted from the following two-line orbital elements,

1 10677U 78019B   24060.55945102  .00000257  00000-0  88440-4 0  9991
2 10677  74.0362  96.4586 0016466 286.9875  72.9475 14.40791508414665
Epoch (UTC): 29 February 2024 13:25:36
Eccentricity: 0.0016466
inclination: 74.0362°
perigee height: 744 km
apogee height: 767 km
right ascension of ascending node: 96.4586°
argument of perigee: 286.9875°
revolutions per day: 14.40791508
mean anomaly at epoch: 72.9475°
orbit number at epoch: 41466

The dashed part of the orbit path shows where the satellite is in the earth's shadow,  

DLR